Regional Weather Roundup
Issued by NWS

Home | Current Version | Previous Version | Graphics & Text | Print | Product List | Glossary On
Versions: 1 2 3 4 5 6 7 8 9 10 11 12 13 14 15 16 17 18 19 20 21 22 23 24 25 26 27 28 29 30 31 32 33 34 35 36 37 38 39 40 41 42 43 44 45 46 47 48 49 50
000
ASUS43 KLMK 240610
RWRKY
KENTUCKY REGIONAL WEATHER ROUNDUP
NATIONAL WEATHER SERVICE LOUISVILLE KY
200 AM EDT THU JUL 24 2014

NOTE "FAIR" INDICATES FEW OR NO CLOUDS BELOW 12,000 FEET
WITH NO SIGNIFICANT WEATHER AND/OR OBSTRUCTIONS TO VISIBILITY.

KYZ001>023-026-027-061>063-070>075-240700-
WESTERN AND SOUTH CENTRAL KENTUCKY

CITY           SKY/WX    TMP DP  RH WIND       PRES   REMARKS
PADUCAH        CLEAR     71  62  73 N10       30.03S
HENDERSON      CLOUDY    70  55  60 N12       30.03S
OWENSBORO      CLOUDY    71  60  68 N9        30.02S
HOPKINSVILLE   CLOUDY    74  72  96 N7        30.00F
BOWLING GREEN  MOCLDY    74  69  85 NW5       29.98F
GLASGOW        NOT AVBL
$$

KYZ024-025-028>034-038-045-046-053-240700-
NORTH CENTRAL KENTUCKY

CITY           SKY/WX    TMP DP  RH WIND       PRES   REMARKS
LOUISVILLE/SDF CLOUDY    72  65  78 N13       29.98F
LOUISVILLE/LOU CLOUDY    72  66  81 N10       29.99F
FORT KNOX      MOCLDY    70  66  88 N6        29.98F
$$

KYZ035>037-039>044-047>052-055>060-089>105-240700-
NORTHEAST KENTUCKY

CITY           SKY/WX    TMP DP  RH WIND       PRES   REMARKS
LEXINGTON      PTCLDY    70  67  90 SW5       29.98F
COVINGTON      CLOUDY    68  65  90 NE13      30.01S
FRANKFORT      CLOUDY    71  68  90 NW10      29.97F
$$

KYZ054-064>069-076>088-106>120-240700-
SOUTHEAST KENTUCKY

CITY           SKY/WX    TMP DP  RH WIND       PRES   REMARKS
JACKSON        CLOUDY    68  66  93 CALM      29.99F FOG
LONDON         MOCLDY    70  68  93 CALM      30.00F
SOMERSET       NOT AVBL
MIDDLESBORO    NOT AVBL
MONTICELLO     PTCLDY    69  69 100 SW5       30.00F FOG
$$



USA.gov is the U.S. government's official web portal to all federal, state and local government web resources and services.